Regional Weather Roundup
Issued by NWS Newport/Morehead, NC

Home | Current Version | Previous Version | Text Only | Print | Product List | Glossary On
Versions: 1 2 3 4 5 6 7 8 9 10 11 12 13 14 15 16 17 18 19 20 21 22 23 24 25 26 27 28 29 30 31 32 33 34 35 36 37 38 39 40 41 42 43 44 45 46 47 48 49 50
000
ASUS42 KMHX 011925
RWRMHX
WEATHER ROUNDUP FOR EASTERN NORTH CAROLINA
NATIONAL WEATHER SERVICE NEWPORT/MOREHEAD CITY NC
300 PM EDT SAT OCT 01 2016

NOTE: "FAIR" INDICATES FEW OR NO CLOUDS BELOW 12,000 FEET
WITH NO SIGNIFICANT WEATHER AND/OR OBSTRUCTIONS TO VISIBILITY

NCZ015>017-031-032-045>047-102-103-012000-
NORTH COAST

CITY           SKY/WX    TMP DP  RH WIND       PRES   REMARKS
EDENTON        PTSUNNY   83  65  53 SW3       30.05S
ELIZABETH CITY PTSUNNY   81  70  69 SW8       30.05F
KITTY HAWK     CLOUDY    81  75  82 SW5       30.04F
MANTEO         CLOUDY    79  73  82 SW12      30.05F

$$

NCZ045>047-081-094-103-104-012000-
CENTRAL COAST

CITY           SKY/WX    TMP DP  RH WIND       PRES   REMARKS
FRISCO         CLOUDY    79  74  84 SW6       30.06F

$$

NCZ095-097-098-100-101-012000-
SOUTHERN COAST

CITY           SKY/WX    TMP DP  RH WIND       PRES   REMARKS
BEAUFORT       MOSUNNY   81  70  69 S10       30.05F
CEDAR ISLAND   NOT AVBL
JACKSONVILLE   CLOUDY    81  73  76 SE12      30.03F
PINEY ISLAND   CLOUDY   N/A N/A N/A S13       30.04F
WILMINGTON     CLOUDY    80  70  71 S8        30.04F


$$

NCZ011>013-027>030-043-044-078>080-089-090>093-098-012000-
COASTAL PLAIN

CITY           SKY/WX    TMP DP  RH WIND       PRES   REMARKS
AHOSKIE        MOSUNNY   80  65  60 S5        30.04F
CLINTON        PTSUNNY   83  64  53 S5        30.04S
ELIZABETHTOWN  NOT AVBL
GOLDSBORO      MOSUNNY   83  61  47 VRB2      30.02F
GREENVILLE     CLOUDY    84  61  45 SW6       30.06S
HAVELOCK       PTSUNNY   81  73  76 S9        30.05F
KENANSVILLE    CLOUDY    82  64  54 S3        30.04F
KINSTON        CLOUDY    82  63  51 S3        30.04F
NEW BERN       CLOUDY    81  73  76 SW5       30.05F
RICHLANDS      CLOUDY    82  71  69 S5        30.04F
ROCKY MOUNT    CLOUDY    81  59  47 SW6       30.04F
WASHINGTON     PTSUNNY   80  69  67 SE5       30.05S
WHITEVILLE     NOT AVBL

$$

AMZ130-135-150-152-154-156-158-170-250-252-270-ANZ085-086-088-633-658-670-012000-
MARINE OBSERVATIONS

STATION/POSITION TIME  TEMP    WIND        PRES    WAVE   SWELL
                       AIR SEA DIR/SP/G            HT/PER HT/PER
                 (UTC) (F)     (DEG/KT/KT) (MB)    (FT/S) (FT/S)
CHESAPEAKE LIGHT NOT AVBL
64 E VA BEACH    1850   74 73  170/  8/ 10 1017.7    6/10   5/10
DUCK             1900   80 77  220/  6/ 10 1017.0
2 E DUCK         1841      77                N/A     4/11   2/11
OREGON INLET     1900   78 78  190/  9/ 10 1017.8
13E OREGON INLT  1900      77                N/A     5/10   5/10
HATTERAS CG      1900   79 79  160/  2/  6 1017.6
DIAMOND BUOY     1850   80 83  210/ 14/ 16 1017.8    6/11   5/11
CAPE LOOKOUT     1900   80     190/ 10/ 12 1017.3
BEAUFORT LAB     1900   80 76  180/ 12/ 14 1016.9
30 SE NEW RVR IN 1908   80 82  170/ 14/ 17 1017.4
30 SE NEW RVR IN 1855      82                N/A     5/ 5   2/11
27 SE WRIGHTSVLE 1908   79 81  160/ 14/ 19 1017.5
5 SE WRIGHTSVLE  1908   79 80  170/ 14/ 17 1018.3
225 S CAPE HAT   1850   79 83   80/  6/  8 1019.0    6/11   5/11
41 SE CHARLESTON 1850   81 82  150/ 12/ 14 1015.9    3/11   2/11

$$




USA.gov is the U.S. government's official web portal to all federal, state and local government web resources and services.